Regional Weather Roundup
Issued by NWS Albany, NY

Home | Current Version | Previous Version | Text Only | Print | Product List | Glossary On
Versions: 1 2 3 4 5 6 7 8 9 10 11 12 13 14 15 16 17 18 19 20 21 22 23 24 25 26 27 28 29 30 31 32 33 34 35 36 37 38 39 40 41 42 43 44 45 46 47 48
000
ASUS41 KALY 312110
RWRALY

NEW YORK STATE HOURLY WEATHER ROUNDUP
NATIONAL WEATHER SERVICE ALBANY NY
500 PM EDT FRI JUL 31 2015

NOTE: "FAIR" INDICATES FEW OR NO CLOUDS BELOW 12,000 FEET WITH NO
SIGNIFICANT WEATHER AND/OR NO OBSTRUCTIONS TO VISIBILITY.

NYZ032-033-038>043-046>054-057>066-NYZ062>081-312200-
EAST


CITY           SKY/WX    TMP DP  RH WIND       PRES   REMARKS
ALBANY         MOSUNNY   85  54  34 W13       29.80F
GLENS FALLS    MOSUNNY   82  54  37 W6G16     29.77F
POUGHKEEPSIE   SUNNY     88  52  29 NW10      29.80S
NEWBURGH       MOSUNNY   84  54  34 NW14G21   29.84S
MONTGOMERY     SUNNY     87  54  32 W10       29.83S
WHITE PLAINS   MOSUNNY   85  54  34 NW15      29.82F
ISLIP          MOSUNNY   88  59  37 W8G23     29.79F
NEW YORK CITY  MOSUNNY   90  50  25 W7G22     29.80F
CENTRAL PARK   SUNNY     88  52  29 VRB6      29.84F
$$

NYZ005>009-017-018-044>046-055-056-312200-
CENTRAL


CITY           SKY/WX    TMP DP  RH WIND       PRES   REMARKS
FULTON         LGT RAIN  80  59  48 SW8       29.79F
SYRACUSE       MOSUNNY   83  58  42 S12       29.78F
ROME           SUNNY     81  57  43 VRB6      29.81F
ELMIRA         PTSUNNY   83  60  45 W9        29.82F
BINGHAMTON     PTSUNNY   77  58  51 SW6       29.87F
MONTICELLO     SUNNY     81  55  41 W10       29.89F
$$

NYZ026>034-041>043-312200-
NORTH


CITY           SKY/WX    TMP DP  RH WIND       PRES   REMARKS
WATERTOWN      SUNNY     82  53  36 SW9       29.75F
FORT DRUM      NOT AVBL
MASSENA        MOSUNNY   80  60  50 S16       29.72F
SARANAC LAKE   SUNNY     75  53  46 SW14      29.79F
PLATTSBURGH    MOSUNNY   82  56  40 W5        29.72F
$$

NYZ001>004-010>016-019>021-312200-
WEST


CITY           SKY/WX    TMP DP  RH WIND       PRES   REMARKS
NIAGARA FALLS  MOSUNNY   82  59  45 SW21G28   29.78F
BUFFALO        MOSUNNY   80  55  42 SW24G30   29.80F
DUNKIRK        SUNNY     81  57  43 SW15G24   29.84F
JAMESTOWN      MOSUNNY   77  54  44 W14G24    29.91F
WELLSVILLE     MOSUNNY   77  56  48 W9        29.92F
ROCHESTER      PTSUNNY   74  62  66 W6        29.80S
PENN YAN       SUNNY     84  58  40 W9        29.82F
$$

             KEY
       WCI = WIND CHILL INDEX
       VSB = VISIBILITY
       HX  = HEAT INDEX
$$


USA.gov is the U.S. government's official web portal to all federal, state and local government web resources and services.